Location: Newark
(45.8667°N, 9.7333°E)
Time: 03:29:01
(UTC+00:00)

Transit 4A - Pass Details

Date: 30 January 2020
Orbit: 872 x 973 km, 66.8° (Epoch: 17 February)

Event Time Altitude Azimuth Distance (km) Brightness Sun altitude
Rises 06:51:42 0° 261° (W) 3,522 10.4 0.0°
Reaches altitude 10° 06:54:54 10° 278° (W) 2,567 9.6 0.5°
Maximum altitude 06:59:15 21° 325° (NW) 1,901 9.1 1.2°
Drops below altitude 10° 07:03:35 10° 13° (NNE) 2,540 10.1 1.9°
Sets 07:06:45 0° 30° (NNE) 3,475 10.9 2.4°
